FW4395 Weather Reports


Display with metric or nautical units.
time (UTC)temp
F
wind
direction
speed
MPH
gust
MPH
rain 1hr
in
rain 24hr
in
rain mn
in
humidity
%
barometer
mb
20260507003504 65 39 3.0 10.0 0.00 0.00 0.00 33 1006.9
20260507003005 65 55 5.0 12.0 0.00 0.00 0.00 32 1006.9
20260507002005 66 336 8.0 22.0 0.00 0.00 0.00 33 1007.0
20260507001505 65 19 5.0 10.0 0.00 0.00 0.00 34 1007.1
20260507001004 64 337 2.0 9.0 0.00 0.00 0.00 34 1007.0
20260507000005 64 131 4.0 16.0 0.00 0.00 0.00 36 1007.0
20260506235505 65 292 13.0 20.0 0.00 0.00 0.00 32 1006.9
20260506235004 66 86 1.0 2.0 0.00 0.00 0.00 29 1006.6
20260506234505 67 50 2.0 6.0 0.00 0.00 0.00 29 1006.4
20260506234005 67 54 3.0 9.0 0.00 0.00 0.00 30 1006.1
20260506233505 67 54 5.0 9.0 0.00 0.00 0.00 29 1005.9
20260506233005 68 71 5.0 12.0 0.00 0.00 0.00 28 1005.9
20260506232505 68 57 5.0 9.0 0.00 0.00 0.00 28 1005.9
20260506231505 68 53 6.0 14.0 0.00 0.00 0.00 27 1005.9
20260506230505 68 75 6.0 13.0 0.00 0.00 0.00 28 1006.0
20260506230005 69 58 5.0 12.0 0.00 0.00 0.00 28 1005.9
20260506225005 69 123 3.0 3.0 0.00 0.00 0.00 28 1006.1
20260506224505 69 122 1.0 5.0 0.00 0.00 0.00 27 1006.3
20260506224006 69 323 2.0 7.0 0.00 0.00 0.00 27 1006.4
20260506223505 69 326 3.0 5.0 0.00 0.00 0.00 27 1006.3
20260506222505 69 37 3.0 6.0 0.00 0.00 0.00 28 1006.1
20260506222005 70 77 4.0 9.0 0.00 0.00 0.00 27 1006.3
20260506221005 70 87 6.0 10.0 0.00 0.00 0.00 28 1006.3
20260506220505 70 128 5.0 9.0 0.00 0.00 0.00 29 1006.4
20260506220005 70 80 4.0 7.0 0.00 0.00 0.00 30 1006.4
20260506215006 68 65 6.0 12.0 0.00 0.00 0.00 27 1006.6
20260506214505 69 76 5.0 7.0 0.00 0.00 0.00 27 1006.7
20260506214005 68 45 2.0 7.0 0.00 0.00 0.00 28 1006.6
20260506213505 68 44 2.0 7.0 0.00 0.00 0.00 28 1006.6
20260506213005 68 57 3.0 5.0 0.00 0.00 0.00 26 1006.7
20260506212505 68 345 6.0 10.0 0.00 0.00 0.00 25 1006.7
20260506212004 68 31 2.0 3.0 0.00 0.00 0.00 26 1006.6
20260506211005 68 52 3.0 8.0 0.00 0.00 0.00 26 1006.7
20260506210505 69 78 5.0 8.0 0.00 0.00 0.00 26 1006.7
20260506210005 69 278 1.0 3.0 0.00 0.00 0.00 25 1006.7
20260506205504 70 72 5.0 12.0 0.00 0.00 0.00 24 1006.8
20260506205005 71 12 2.0 5.0 0.00 0.00 0.00 26 1006.7
20260506204005 70 2 2.0 10.0 0.00 0.00 0.00 25 1006.7
20260506203005 69 64 3.0 6.0 0.00 0.00 0.00 26 1006.8
20260506202005 70 340 5.0 16.0 0.00 0.00 0.00 24 1006.8
20260506201005 70 32 3.0 9.0 0.00 0.00 0.00 26 1007.0
20260506200505 70 65 4.0 9.0 0.00 0.00 0.00 27 1006.9
20260506200005 71 31 4.0 16.0 0.00 0.00 0.00 25 1006.9
20260506195505 71 338 12.0 17.0 0.00 0.00 0.00 23 1007.0
20260506195005 71 337 5.0 13.0 0.00 0.00 0.00 24 1007.0
20260506194504 71 51 6.0 12.0 0.00 0.00 0.00 25 1007.1
20260506193505 70 52 5.0 12.0 0.00 0.00 0.00 26 1007.2
20260506193005 69 65 4.0 12.0 0.00 0.00 0.00 26 1007.1
20260506192504 69 42 5.0 9.0 0.00 0.00 0.00 27 1007.1
20260506192005 69 48 5.0 13.0 0.00 0.00 0.00 26 1007.2
20260506191505 69 20 4.0 18.0 0.00 0.00 0.00 25 1007.3
20260506190504 71 357 3.0 10.0 0.00 0.00 0.00 25 1007.4
20260506190006 70 349 7.0 14.0 0.00 0.00 0.00 25 1007.4
20260506185504 70 331 3.0 9.0 0.00 0.00 0.00 26 1007.5
20260506185005 68 10 1.0 8.0 0.00 0.00 0.00 28 1007.5
20260506184505 68 313 3.0 9.0 0.00 0.00 0.00 25 1007.5
20260506184005 68 52 2.0 6.0 0.00 0.00 0.00 26 1007.6
20260506183505 67 151 2.0 9.0 0.00 0.00 0.00 26 1007.7
20260506182504 67 316 8.0 13.0 0.00 0.00 0.00 26 1007.6
20260506182004 67 230 4.0 8.0 0.00 0.00 0.00 27 1007.7
20260506181505 66 297 7.0 12.0 0.00 0.00 0.00 26 1007.8
20260506180505 66 305 5.0 12.0 0.00 0.00 0.00 26 1008.0
20260506180005 66 307 11.0 20.0 0.00 0.00 0.00 27 1008.0
20260506174005 65 320 5.0 12.0 0.00 0.00 0.00 28 1008.2
20260506173505 64 256 3.0 12.0 0.00 0.00 0.00 28 1008.2
20260506173004 64 324 4.0 12.0 0.00 0.00 0.00 27 1008.3
20260506172505 64 269 7.0 12.0 0.00 0.00 0.00 27 1008.3
20260506172005 64 271 7.0 13.0 0.00 0.00 0.00 28 1008.5
20260506171505 63 256 7.0 15.0 0.00 0.00 0.00 28 1008.5
20260506171005 63 266 5.0 12.0 0.00 0.00 0.00 27 1008.5
20260506170505 63 257 7.0 13.0 0.00 0.00 0.00 28 1008.6
20260506170005 63 257 8.0 14.0 0.00 0.00 0.00 29 1008.7
20260506165504 63 264 9.0 13.0 0.00 0.00 0.00 29 1008.7
20260506165005 62 255 9.0 13.0 0.00 0.00 0.00 29 1008.7
20260506164504 61 264 7.0 15.0 0.00 0.00 0.00 31 1008.9
20260506163505 61 265 9.0 12.0 0.00 0.00 0.00 30 1009.0
20260506163005 61 250 7.0 12.0 0.00 0.00 0.00 31 1009.1
20260506162506 60 270 8.0 12.0 0.00 0.00 0.00 33 1009.2
20260506161505 58 255 5.0 10.0 0.00 0.00 0.00 35 1009.3
20260506161005 58 215 5.0 10.0 0.00 0.00 0.00 36 1009.4
20260506160505 57 205 5.0 8.0 0.00 0.00 0.00 37 1009.6
20260506160004 56 191 5.0 8.0 0.00 0.00 0.00 38 1009.6
20260506155505 55 223 7.0 12.0 0.00 0.00 0.00 37 1009.7
20260506154504 54 216 5.0 12.0 0.00 0.00 0.00 40 1009.8
20260506154005 53 253 8.0 12.0 0.00 0.00 0.00 40 1009.9
20260506153505 53 225 6.0 12.0 0.00 0.00 0.00 41 1010.0
20260506153005 52 226 10.0 14.0 0.00 0.00 0.00 41 1009.9
20260506152504 52 245 7.0 12.0 0.00 0.00 0.00 42 1010.0
20260506152005 51 226 8.0 12.0 0.00 0.00 0.00 43 1010.1
20260506151505 51 245 9.0 12.0 0.00 0.00 0.00 42 1010.0
20260506150505 50 217 8.0 12.0 0.00 0.00 0.00 43 1010.2
20260506150005 50 233 6.0 9.0 0.00 0.00 0.00 45 1010.3
20260506145004 48 212 4.0 10.0 0.00 0.00 0.00 46 1010.3
20260506144504 48 222 5.0 8.0 0.00 0.00 0.00 46 1010.4
20260506144005 47 229 5.0 7.0 0.00 0.00 0.00 49 1010.4
20260506143004 46 240 6.0 8.0 0.00 0.00 0.00 49 1010.6
20260506142504 45 248 6.0 9.0 0.00 0.00 0.00 50 1010.5
20260506142005 44 250 7.0 9.0 0.00 0.00 0.00 52 1010.6
20260506141505 44 257 7.0 9.0 0.00 0.00 0.00 53 1010.7
20260506141005 43 251 7.0 9.0 0.00 0.00 0.00 54 1010.6
20260506140504 42 259 7.0 9.0 0.00 0.00 0.00 54 1010.7
20260506140005 41 255 6.0 8.0 0.00 0.00 0.00 56 1010.7
20260506135005 39 260 6.0 8.0 0.00 0.00 0.00 58 1010.8
20260506134505 38 261 4.0 6.0 0.00 0.00 0.00 58 1010.9
20260506134004 37 271 5.0 7.0 0.00 0.00 0.00 58 1010.9
20260506133505 37 285 4.0 6.0 0.00 0.00 0.00 59 1011.0
20260506133005 36 260 4.0 6.0 0.00 0.00 0.00 60 1010.8
20260506132504 35 251 3.0 5.0 0.00 0.00 0.00 61 1010.9
20260506132005 34 249 3.0 3.0 0.00 0.00 0.00 60 1010.9
20260506131505 34 248 2.0 5.0 0.00 0.00 0.00 61 1010.9
20260506131004 33 245 2.0 3.0 0.00 0.00 0.00 61 1010.9
20260506130505 33 236 1.0 2.0 0.00 0.00 0.00 60 1010.9
20260506130005 33 247 1.0 2.0 0.00 0.00 0.00 58 1010.9
20260506125505 34 223 1.0 2.0 0.00 0.00 0.00 56 1010.9
20260506124505 34 203 2.0 3.0 0.00 0.00 0.00 56 1011.0
20260506124004 33 191 2.0 3.0 0.00 0.00 0.00 58 1011.0
20260506123505 32 193 2.0 3.0 0.00 0.00 0.00 58 1011.0
20260506123005 32 194 3.0 5.0 0.00 0.00 0.00 57 1011.1
20260506122505 32 186 3.0 3.0 0.00 0.00 0.00 57 1011.0
20260506122004 32 194 2.0 3.0 0.00 0.00 0.00 57 1011.1
20260506120505 32 175 0.0 2.0 0.00 0.00 0.00 56 1011.3
20260506120005 32 179 0.0 2.0 0.00 0.00 0.00 56 1011.2
20260506115504 32 180 0.0 3.0 0.00 0.00 0.00 56 1011.5
20260506115004 32 186 0.0 2.0 0.00 0.00 0.00 56 1011.5
20260506114504 32 162 1.0 2.0 0.00 0.00 0.00 56 1011.5
20260506114005 32 166 1.0 2.0 0.00 0.00 0.00 56 1011.7
20260506113505 32 158 1.0 3.0 0.00 0.00 0.00 56 1011.9
20260506113005 32 172 0.0 2.0 0.00 0.00 0.00 56 1011.8
20260506112005 32 150 1.0 3.0 0.00 0.00 0.00 56 1011.9
20260506111504 32 171 0.0 3.0 0.00 0.00 0.00 56 1011.9
20260506111005 32 154 1.0 2.0 0.00 0.00 0.00 56 1012.0
20260506110004 33 145 1.0 2.0 0.00 0.00 0.00 56 1012.1
20260506105504 33 144 1.0 2.0 0.00 0.00 0.00 55 1012.2
20260506105005 33 150 1.0 3.0 0.00 0.00 0.00 55 1012.2
20260506104004 33 137 1.0 3.0 0.00 0.00 0.00 55 1012.3
20260506103504 33 130 2.0 3.0 0.00 0.00 0.00 55 1012.3
20260506103005 33 128 2.0 3.0 0.00 0.00 0.00 55 1012.4
20260506102505 33 137 1.0 3.0 0.00 0.00 0.00 55 1012.4
20260506102004 33 128 3.0 5.0 0.00 0.00 0.00 55 1012.5
20260506101504 33 123 2.0 3.0 0.00 0.00 0.00 56 1012.6
20260506101004 33 125 3.0 3.0 0.00 0.00 0.00 55 1012.7
20260506100505 33 125 3.0 5.0 0.00 0.00 0.00 55 1012.8
20260506100005 33 127 3.0 5.0 0.00 0.00 0.00 55 1012.9
20260506095505 33 134 2.0 5.0 0.00 0.00 0.00 55 1012.9
20260506094504 33 130 3.0 6.0 0.00 0.00 0.00 54 1013.0
20260506094004 33 127 3.0 5.0 0.00 0.00 0.00 54 1013.2
20260506093505 33 133 4.0 8.0 0.00 0.00 0.00 54 1013.3
20260506093004 33 127 3.0 5.0 0.00 0.00 0.00 55 1013.5
20260506092504 33 127 3.0 6.0 0.00 0.00 0.00 55 1013.4
20260506092004 33 126 3.0 5.0 0.00 0.00 0.00 55 1013.5
20260506091505 33 126 3.0 6.0 0.00 0.00 0.00 55 1013.6
20260506091004 33 131 3.0 5.0 0.00 0.00 0.00 55 1013.7
20260506085005 33 124 3.0 6.0 0.00 0.00 0.00 55 1013.9
20260506084505 32 134 3.0 5.0 0.00 0.00 0.00 55 1013.9
20260506084005 32 136 2.0 3.0 0.00 0.00 0.00 56 1014.0
20260506083505 32 136 2.0 3.0 0.00 0.00 0.00 56 1014.0
20260506083004 32 130 2.0 3.0 0.00 0.00 0.00 57 1014.1
20260506082505 32 119 2.0 3.0 0.00 0.00 0.00 57 1014.1
20260506082004 32 122 2.0 3.0 0.00 0.00 0.00 56 1014.2
20260506081005 31 122 2.0 3.0 0.00 0.00 0.00 58 1014.3
20260506073504 33 124 2.0 3.0 0.00 0.00 0.00 54 1014.8
20260506073004 34 125 3.0 5.0 0.00 0.00 0.00 53 1014.8
20260506072505 34 126 3.0 5.0 0.00 0.00 0.00 53 1014.9
20260506072004 34 129 3.0 6.0 0.00 0.00 0.00 53 1014.9
20260506071505 34 131 3.0 6.0 0.00 0.00 0.00 53 1015.0
20260506071005 34 125 3.0 6.0 0.00 0.00 0.00 53 1015.1
20260506070504 33 134 4.0 6.0 0.00 0.00 0.00 53 1015.2
20260506062505 34 124 3.0 5.0 0.00 0.00 0.00 53 1015.7
20260506062004 34 127 2.0 5.0 0.00 0.00 0.00 53 1015.7
20260506061505 34 130 3.0 5.0 0.00 0.00 0.00 53 1015.8
20260506060505 33 120 1.0 3.0 0.00 0.00 0.00 56 1015.8
20260506051004 33 130 0.0 1.0 0.00 0.00 0.00 54 1016.4
20260506050504 33 110 0.0 3.0 0.00 0.00 0.00 54 1016.4
20260506045004 34 143 1.0 3.0 0.00 0.00 0.00 54 1016.5
20260506044504 33 110 1.0 3.0 0.00 0.00 0.00 54 1016.7
20260506044004 34 100 0.0 1.0 0.00 0.00 0.00 55 1016.5
20260506043005 34 62 1.0 2.0 0.00 0.00 0.00 54 1016.6
20260506042004 35 130 0.0 1.0 0.00 0.00 0.00 53 1016.7
20260506041505 35 68 1.0 3.0 0.00 0.00 0.00 52 1016.7
20260506041004 35 136 1.0 2.0 0.00 0.00 0.00 52 1016.7
20260506040504 35 110 0.0 2.0 0.00 0.00 0.00 52 1016.7
20260506040005 35 89 1.0 2.0 0.00 0.00 0.00 52 1016.8
20260506035505 35 112 1.0 2.0 0.00 0.00 0.00 51 1016.9
20260506035004 35 90 1.0 2.0 0.00 0.00 0.00 51 1016.9
20260506034504 36 96 1.0 3.0 0.00 0.00 0.00 50 1016.9
20260506034005 36 102 1.0 2.0 0.00 0.00 0.00 49 1016.8
20260506033504 36 109 1.0 2.0 0.00 0.00 0.00 49 1016.8
20260506033005 37 79 1.0 2.0 0.00 0.00 0.00 48 1016.8
20260506032004 38 132 1.0 2.0 0.00 0.00 0.00 47 1016.8
20260506031504 38 132 0.0 1.0 0.00 0.00 0.00 47 1016.7
20260506030504 39 132 0.0 1.0 0.00 0.00 0.00 44 1016.7
20260506030004 40 146 0.0 1.0 0.00 0.00 0.00 44 1016.7
20260506025504 41 95 0.0 1.0 0.00 0.00 0.00 43 1016.7
20260506025005 42 95 0.0 1.0 0.00 0.00 0.00 41 1016.7
20260506024505 43 95 0.0 2.0 0.00 0.00 0.00 40 1016.7
20260506024004 44 83 0.0 1.0 0.00 0.00 0.00 38 1016.7
20260506023504 45 83 1.0 3.0 0.00 0.00 0.00 37 1016.6
20260506023004 46 99 1.0 3.0 0.00 0.00 0.00 36 1016.7
20260506022004 46 140 2.0 6.0 0.00 0.00 0.00 35 1016.6
20260506021504 47 63 2.0 3.0 0.00 0.00 0.00 33 1016.5
20260506021005 48 125 1.0 3.0 0.00 0.00 0.00 33 1016.6
20260506020504 48 125 0.0 2.0 0.00 0.00 0.00 34 1016.7
20260506020004 48 118 2.0 3.0 0.00 0.00 0.00 32 1016.7
20260506015504 49 107 1.0 3.0 0.00 0.00 0.00 33 1016.7
20260506015004 49 125 1.0 3.0 0.00 0.00 0.00 32 1016.7
20260506014505 49 85 3.0 6.0 0.00 0.00 0.00 31 1016.7
20260506013504 49 83 3.0 3.0 0.00 0.00 0.00 31 1016.8
20260506013005 49 47 3.0 5.0 0.00 0.00 0.00 31 1016.8
20260506012504 49 64 3.0 5.0 0.00 0.00 0.00 30 1016.8
20260506012005 49 88 4.0 8.0 0.00 0.00 0.00 30 1016.9
20260506011504 49 79 3.0 10.0 0.00 0.00 0.00 31 1016.8
20260506011004 50 76 5.0 8.0 0.00 0.00 0.00 30 1016.8
20260506010504 50 99 3.0 7.0 0.00 0.00 0.00 31 1016.8
20260506010004 50 96 4.0 8.0 0.00 0.00 0.00 31 1016.8
20260506005005 50 34 4.0 7.0 0.00 0.00 0.00 30 1017.0
20260506004505 50 156 3.0 6.0 0.00 0.00 0.00 30 1017.0
20260506004005 50 43 2.0 5.0 0.00 0.00 0.00 30 1017.0